Date String (YYYY-MM-DD hh:mm:ss) UTC,Instrument flags,Ambient pressure (hPa),Sample flow (lpm),Bypass flow (lpm),Sample temperature (°C),Ambient temperature (°C),ASC tube jacket temperature (°C),LED temperature (°C),Box temperature (°C),Sample RH (%),Span deviation,Mass concentration (μg/m³),Mass concentration (μg/m³),Mass concentration (μg/m³)
DateTimeUTC,F1_M11,P_M11,Q1_M11,Q2_M11,T1_M11,T2_M11,T3_M11,T4_M11,T5_M11,U1_M11,ZSPAN_M11,X0_M11,X2_M11,X1_M11
2022-07-10 15:00:00,,0831.1,5.00,0.00,29.6,27.9,00.0,38.3,31.5,21.2,0000.0,0013.98,0003.52,0002.90
2022-07-10 15:01:00,,0831.0,5.00,0.00,29.6,27.5,00.0,38.3,31.4,21.6,0000.0,0013.35,0003.51,0002.89
2022-07-10 15:02:00,,0831.1,5.00,0.00,29.6,27.5,00.0,38.3,31.4,21.7,0000.0,0013.34,0003.53,0002.90
2022-07-10 15:03:00,,0831.1,5.00,0.00,29.6,27.7,00.0,38.3,31.4,20.2,0000.0,0013.34,0003.56,0002.89
2022-07-10 15:04:00,,0831.1,5.01,0.00,29.6,27.8,00.0,38.3,31.4,19.0,0000.0,0013.32,0003.58,0002.89
2022-07-10 15:05:00,,0831.1,5.00,0.00,29.6,28.0,00.0,38.3,31.4,19.1,0000.0,0013.19,0003.58,0002.89
2022-07-10 15:06:00,,0831.0,4.99,0.00,29.6,28.1,00.0,38.3,31.4,20.0,0000.0,0012.78,0003.59,0002.88
2022-07-10 15:07:00,,0831.1,4.99,0.00,29.6,28.3,00.0,38.3,31.5,19.5,0000.0,0011.38,0003.61,0002.89
2022-07-10 15:08:00,,0831.0,5.00,0.00,29.7,28.4,00.0,38.3,31.6,19.1,0000.0,0010.75,0003.57,0002.87
2022-07-10 15:09:00,,0831.0,5.00,0.00,29.7,28.0,00.0,38.3,31.6,19.4,0000.0,0010.40,0003.52,0002.84
2022-07-10 15:10:00,,0831.1,4.99,0.00,29.6,27.6,00.0,38.3,31.4,21.4,0000.0,0010.72,0003.55,0002.82
2022-07-10 15:11:00,,0831.1,5.01,0.00,29.6,27.6,00.0,38.3,31.4,20.9,0000.0,0010.35,0003.55,0002.83
2022-07-10 15:12:00,,0831.0,5.01,0.00,29.6,27.7,00.0,38.3,31.3,17.5,0000.0,0010.24,0003.54,0002.82
2022-07-10 15:13:00,,0831.1,4.99,0.00,29.6,27.9,00.0,38.3,31.4,15.3,0000.0,0010.13,0003.48,0002.79
2022-07-10 15:14:00,,0831.0,5.01,0.00,29.6,28.0,00.0,38.3,31.4,15.5,0000.0,0010.58,0003.43,0002.76
2022-07-10 15:15:00,,0831.0,4.99,0.00,29.6,28.2,00.0,38.3,31.5,15.6,0000.0,0010.32,0003.38,0002.73
2022-07-10 15:16:00,,0831.0,5.01,0.00,29.6,28.3,00.0,38.3,31.5,15.5,0000.0,0010.03,0003.33,0002.70
2022-07-10 15:17:00,,0831.0,5.00,0.00,29.7,28.4,00.0,38.3,31.6,15.5,0000.0,0009.95,0003.30,0002.67
2022-07-10 15:18:00,,0831.0,4.99,0.00,29.7,28.5,00.0,38.3,31.7,15.5,0000.0,0009.62,0003.27,0002.63
2022-07-10 15:19:00,,0831.1,4.99,0.00,29.8,28.7,00.0,38.3,31.8,15.4,0000.0,0009.09,0003.29,0002.61
2022-07-10 15:20:00,,0831.0,5.01,0.00,29.8,28.9,00.0,38.4,31.9,15.4,0000.0,0008.89,0003.29,0002.59
2022-07-10 15:21:00,,0831.0,4.99,0.00,29.9,29.2,00.0,38.4,32.0,15.0,0000.0,0008.18,0003.24,0002.58
2022-07-10 15:22:00,,0831.0,5.01,0.00,30.0,29.4,00.0,38.4,32.1,14.7,0000.0,0007.40,0003.19,0002.56
2022-07-10 15:23:00,,0831.0,5.01,0.00,30.0,29.6,00.0,38.5,32.2,14.7,0000.0,0007.37,0003.17,0002.55
2022-07-10 15:24:00,,0831.0,4.99,0.00,30.1,29.8,00.0,38.6,32.3,14.9,0000.0,0007.45,0003.18,0002.55
2022-07-10 15:25:00,,0831.0,5.02,0.00,30.2,30.0,00.0,38.6,32.4,14.6,0000.0,0006.86,0003.20,0002.56
2022-07-10 15:26:00,,0831.0,4.99,0.00,30.3,30.1,00.0,38.7,32.4,14.0,0000.0,0006.44,0003.18,0002.56
2022-07-10 15:27:00,,0831.0,5.00,0.00,30.4,30.2,00.0,38.7,32.5,14.2,0000.0,0006.83,0003.21,0002.59
2022-07-10 15:28:00,,0831.0,4.99,0.00,30.5,30.3,00.0,38.8,32.6,14.2,0000.0,0007.32,0003.24,0002.62
2022-07-10 15:29:00,,0831.0,5.01,0.00,30.5,30.4,00.0,38.9,32.7,14.2,0000.0,0007.38,0003.25,0002.65
2022-07-10 15:30:00,,0831.0,5.01,0.00,30.6,30.5,00.0,38.9,32.8,14.5,0000.0,0007.54,0003.22,0002.66
2022-07-10 15:31:00,,0831.0,4.99,0.00,30.7,30.6,00.0,39.0,32.8,15.0,0000.0,0007.86,0003.22,0002.67
2022-07-10 15:32:00,,0831.1,5.01,0.00,30.8,30.7,00.0,39.1,32.9,14.9,0000.0,0007.52,0003.24,0002.66
2022-07-10 15:33:00,,0831.0,5.00,0.00,30.9,30.8,00.0,39.1,33.0,14.5,0000.0,0008.19,0003.22,0002.63
2022-07-10 15:34:00,,0831.0,4.99,0.00,30.9,30.8,00.0,39.2,33.1,13.7,0000.0,0008.93,0003.21,0002.61
2022-07-10 15:35:00,,0831.0,5.01,0.00,31.0,30.9,00.0,39.3,33.1,13.9,0000.0,0009.28,0003.23,0002.61
2022-07-10 15:36:00,,0831.0,5.00,0.00,31.1,31.0,00.0,39.4,33.2,14.3,0000.0,0009.48,0003.24,0002.61
2022-07-10 15:37:00,,0831.0,4.99,0.00,31.2,31.1,00.0,39.4,33.2,14.9,0000.0,0009.52,0003.25,0002.60
2022-07-10 15:38:00,,0831.0,5.01,0.00,31.2,31.1,00.0,39.5,33.3,15.2,0000.0,0009.44,0003.25,0002.58
2022-07-10 15:39:00,,0831.0,5.00,0.00,31.3,31.2,00.0,39.6,33.4,14.6,0000.0,0009.59,0003.25,0002.54
2022-07-10 15:40:00,,0831.0,5.00,0.00,31.4,31.3,00.0,39.6,33.5,14.2,0000.0,0009.56,0003.25,0002.50
2022-07-10 15:41:00,,0831.0,4.98,0.00,31.5,31.3,00.0,39.7,33.5,13.6,0000.0,0009.37,0003.28,0002.49
2022-07-10 15:42:00,,0831.0,5.00,0.00,31.5,31.4,00.0,39.8,33.6,13.9,0000.0,0008.77,0003.27,0002.50
2022-07-10 15:43:00,,0831.1,5.01,0.00,31.6,31.5,00.0,39.9,33.6,14.6,0000.0,0008.94,0003.26,0002.50
2022-07-10 15:44:00,,0831.0,5.00,0.00,31.7,31.5,00.0,39.9,33.7,14.8,0000.0,0008.97,0003.27,0002.49
2022-07-10 15:45:00,,0831.0,5.00,0.00,31.7,31.6,00.0,40.0,33.8,14.9,0000.0,0008.55,0003.27,0002.49
2022-07-10 15:46:00,,0831.0,5.00,0.00,31.8,31.6,00.0,40.1,33.8,13.8,0000.0,0008.04,0003.25,0002.48
2022-07-10 15:47:00,,0831.0,5.00,0.00,31.9,31.7,00.0,40.1,33.9,13.7,0000.0,0007.88,0003.25,0002.47
2022-07-10 15:48:00,,0831.0,4.99,0.00,31.9,31.7,00.0,40.2,33.9,13.7,0000.0,0007.83,0003.26,0002.48
2022-07-10 15:49:00,,0831.1,4.99,0.00,32.0,31.8,00.0,40.3,34.0,13.8,0000.0,0007.95,0003.27,0002.49
2022-07-10 15:50:00,,0831.0,5.00,0.00,32.1,31.8,00.0,40.3,34.1,13.6,0000.0,0007.85,0003.26,0002.53
2022-07-10 15:51:00,,0831.0,5.01,0.00,32.1,31.9,00.0,40.4,34.1,13.8,0000.0,0007.56,0003.24,0002.56
2022-07-10 15:52:00,,0831.0,5.01,0.00,32.2,31.9,00.0,40.5,34.1,13.8,0000.0,0007.54,0003.23,0002.57
2022-07-10 15:53:00,,0831.1,5.01,0.00,32.3,32.0,00.0,40.5,34.2,13.9,0000.0,0007.90,0003.27,0002.58
2022-07-10 15:54:00,,0831.1,5.00,0.00,32.3,32.0,00.0,40.6,34.2,14.3,0000.0,0007.72,0003.27,0002.59
2022-07-10 15:55:00,,0831.1,5.00,0.00,32.4,32.1,00.0,40.6,34.3,14.2,0000.0,0006.87,0003.27,0002.63
2022-07-10 15:56:00,,0831.0,5.01,0.00,32.4,32.2,00.0,40.7,34.3,14.5,0000.0,0006.47,0003.31,0002.66
2022-07-10 15:57:00,,0831.0,5.00,0.00,32.5,32.2,00.0,40.8,34.4,14.8,0000.0,0006.40,0003.32,0002.67
2022-07-10 15:58:00,,0831.0,5.00,0.00,32.6,32.2,00.0,40.8,34.5,15.0,0000.0,0006.38,0003.32,0002.68
2022-07-10 15:59:00,,0831.1,5.00,0.00,32.6,32.3,00.0,40.9,34.5,14.4,0000.0,0007.54,0003.36,0002.68
